Location: Unspecified
(0.0000°N, 0.0000°E)
Time: 22:19:59
(UTC+00:00)

S-56A Canister/Altair - Pass Details

Date: 19 December 2018
Orbit: 633 x 2500 km, 38.9° (Epoch: 18 January)

Event Time Altitude Azimuth Distance (km) Brightness Sun altitude
Rises 20:16:20 0° 196° (SSW) 2,943 11.1 -31.6°
Enters shadow 20:19:13 - 173° (S) 2,156 10.0 -32.2°
Reaches altitude 10° 20:20:03 10° 163° (SSE) 2,010 - -32.4°
Maximum altitude 20:21:51 12° 139° (SE) 1,896 - -32.8°
Drops below altitude 10° 20:23:42 10° 115° (ESE) 2,088 - -33.2°
Sets 20:27:45 0° 84° (E) 3,204 - -34.1°
